This is the latest recevied weather packets stored in our database for station/object AI5BL. If no packets are shown the sender has not sent any weather packets the latest 10 day(s).
| Time | Temp. | Humidity | Pressure | Rain* | Wind** | Luminosity | Snow |
|---|---|---|---|---|---|---|---|
| 1777734960 | 18.33° C | 68% | 1018.5 hPa | 0 mm | - | 597 W/m² | - |
| 1777734657 | 17.78° C | 64% | 1018.9 hPa | 0 mm | - | 585 W/m² | - |
| 1777734355 | 18.33° C | 69% | 1018.8 hPa | 0 mm | - | 569 W/m² | - |
| 1777734050 | 17.78° C | 69% | 1018.8 hPa | 0 mm | - | 556 W/m² | - |
| 1777733747 | 17.78° C | 67% | 1018.7 hPa | 0 mm | - | 542 W/m² | - |
| 1777733444 | 17.78° C | 67% | 1018.8 hPa | 0 mm | - | 528 W/m² | - |
| 1777733140 | 17.78° C | 66% | 1018.5 hPa | 0 mm | - | 514 W/m² | - |
| 1777732837 | 17.22° C | 73% | 1018.6 hPa | 0 mm | - | 496 W/m² | - |
| 1777732534 | 16.67° C | 71% | 1018.6 hPa | 0 mm | - | 481 W/m² | - |
| 1777732232 | 16.67° C | 72% | 1018.5 hPa | 0 mm | - | 464 W/m² | - |
| 1777731928 | 16.11° C | 76% | 1018.2 hPa | 0 mm | - | 449 W/m² | - |
| 1777731625 | 16.67° C | 73% | 1018.4 hPa | 0 mm | - | 430 W/m² | - |
| 1777731323 | 16.67° C | 75% | 1018.4 hPa | 0 mm | - | 415 W/m² | - |
| 1777731021 | 16.11° C | 74% | 1018 hPa | 0 mm | - | 397 W/m² | - |
| 1777730719 | 15.56° C | 75% | 1018 hPa | 0 mm | - | 381 W/m² | - |
| 1777730415 | 16.11° C | 76% | 1018.1 hPa | 0 mm | - | 362 W/m² | - |
| 1777730110 | 15.56° C | 83% | 1017.8 hPa | 0 mm | - | 342 W/m² | - |
| 1777729807 | 15.56° C | 81% | 1017.9 hPa | 0 mm | - | 342 W/m² | - |
| 1777729504 | 15.56° C | 86% | 1018.1 hPa | 0 mm | - | 330 W/m² | - |
| 1777729201 | 15.56° C | 85% | 1018 hPa | 0 mm | - | 315 W/m² | - |
| 1777728897 | 15° C | 85% | 1017.9 hPa | 0 mm | - | 300 W/m² | - |
| 1777728594 | 14.44° C | 90% | 1017.9 hPa | 0 mm | - | 274 W/m² | - |
| 1777728292 | 14.44° C | 90% | 1017.8 hPa | 0 mm | - | 262 W/m² | - |
| 1777727989 | 13.89° C | 94% | 1017.7 hPa | 0 mm | - | 245 W/m² | - |
| 1777727685 | 13.89° C | 97% | 1017.8 hPa | 0 mm | - | 230 W/m² | - |
* Rain latest hour (hover to see other rain measurements)
** Current wind speed in m/s (hover to see current wind gust speed)